Date String (YYYY-MM-DD hh:mm:ss) UTC,Instrument flags,absolute air pressure of the measurement (hPa),sample flow rate (lpm),inlet stack bypass flow (lpm),air temperature of the measurement (°C),ambient temperature measured by the external sensor (°C),aerosol sample conditioner tube jacket temperature (°C),OPC LED temperature (°C),internal box temperature (°C),relative humidity of the measurement (%),span deviation,mass concentration of particles derived from Lorenz-Mie calculation of OPC scattering (μg/m³),mass concentration of particles derived from Lorenz-Mie calculation of OPC scattering (μg/m³),mass concentration of particles derived from Lorenz-Mie calculation of OPC scattering (μg/m³)
DateTimeUTC,F1_M11,P_M11,Q1_M11,Q2_M11,T1_M11,T2_M11,T3_M11,T4_M11,T5_M11,U1_M11,ZSPAN_M11,X2_M11,X0_M11,X1_M11
2023-07-08 18:00:00,SystemResetWarning,0830.2,5.00,000.00,030.3,025.1,000.0,038.2,030.6,32.4,-001.4,0009.41,0014.06,0008.73
2023-07-08 18:01:00,SystemResetWarning,0830.2,5.01,000.00,030.2,025.5,000.0,038.3,030.5,33.1,-001.2,0009.37,0014.01,0008.72
2023-07-08 18:02:00,SystemResetWarning,0830.2,5.01,000.00,030.1,026.0,000.0,038.3,030.6,33.1,-001.1,0009.32,0013.71,0008.68
2023-07-08 18:03:00,SystemResetWarning,0830.2,5.00,000.00,030.1,026.4,000.0,038.4,030.7,32.9,-000.7,0009.23,0013.82,0008.61
2023-07-08 18:04:00,SystemResetWarning,0830.2,5.00,000.00,030.1,026.8,000.0,038.4,030.8,32.9,-000.5,0009.09,0013.36,0008.54
2023-07-08 18:05:00,SystemResetWarning,0830.2,5.00,000.00,030.1,027.1,000.0,038.4,030.8,33.0,-000.5,0009.05,0013.34,0008.49
2023-07-08 18:06:00,SystemResetWarning,0830.2,4.98,000.00,030.1,027.4,000.0,038.4,030.9,33.9,-000.3,0009.04,0013.32,0008.46
2023-07-08 18:07:00,SystemResetWarning,0830.2,5.02,000.00,030.1,027.6,000.0,038.4,031.0,34.3,-000.3,0009.03,0013.39,0008.43
2023-07-08 18:08:00,SystemResetWarning,0830.1,4.98,000.00,030.1,027.7,000.0,038.4,031.0,34.9,-000.2,0009.05,0013.27,0008.44
2023-07-08 18:09:00,SystemResetWarning,0830.2,5.02,000.00,030.2,026.8,000.0,038.3,031.1,34.8,-000.7,0009.04,0013.33,0008.42
2023-07-08 18:10:00,SystemResetWarning,0830.3,5.00,000.00,030.4,025.4,000.0,038.1,031.0,33.7,-000.9,0009.00,0013.39,0008.39
2023-07-08 18:11:00,SystemResetWarning,0830.3,4.99,000.00,030.4,025.0,000.0,038.1,030.9,32.9,-001.1,0008.94,0013.84,0008.34
2023-07-08 18:12:00,SystemResetWarning,0830.3,5.00,000.00,030.3,025.2,000.0,038.1,030.6,32.7,-001.5,0008.91,0013.80,0008.30
2023-07-08 18:13:00,SystemResetWarning,0830.3,5.01,000.00,030.2,025.6,000.0,038.2,030.6,32.7,-001.9,0008.97,0013.88,0008.34
2023-07-08 18:14:00,SystemResetWarning,0830.2,4.99,000.00,030.2,026.0,000.0,038.2,030.7,33.0,-001.9,0009.04,0013.81,0008.43
2023-07-08 18:15:00,SystemResetWarning,0830.3,5.00,000.00,030.2,026.5,000.0,038.3,030.7,33.5,-001.8,0009.11,0014.17,0008.51
2023-07-08 18:16:00,SystemResetWarning,0830.3,4.99,000.00,030.2,026.8,000.0,038.3,030.8,34.4,-001.8,0009.23,0014.70,0008.61
2023-07-08 18:17:00,SystemResetWarning,0830.3,5.01,000.00,030.2,027.2,000.0,038.3,030.9,32.8,-001.9,0009.29,0014.84,0008.69
2023-07-08 18:18:00,SystemResetWarning,0830.2,4.99,000.00,030.3,027.4,000.0,038.4,031.0,33.1,-001.9,0009.40,0015.00,0008.79
2023-07-08 18:19:00,SystemResetWarning,0830.2,4.98,000.00,030.3,027.6,000.0,038.4,031.0,33.6,-001.9,0009.55,0015.16,0008.92
2023-07-08 18:20:00,SystemResetWarning,0830.2,5.01,000.00,030.3,027.8,000.0,038.4,031.1,34.0,-001.9,0009.62,0015.49,0009.01
2023-07-08 18:21:00,SystemResetWarning,0830.2,4.99,000.00,030.3,027.3,000.0,038.4,031.1,33.1,-001.8,0009.71,0015.41,0009.09
2023-07-08 18:22:00,SystemResetWarning,0830.1,5.00,000.00,030.3,025.7,000.0,038.2,030.9,32.7,-001.6,0009.79,0015.02,0009.15
2023-07-08 18:23:00,SystemResetWarning,0830.1,5.01,000.00,030.2,025.0,000.0,038.1,030.7,33.8,-001.5,0009.92,0015.18,0009.24
2023-07-08 18:24:00,SystemResetWarning,0830.1,5.01,000.00,030.1,025.0,000.0,038.1,030.5,34.1,-001.3,0009.99,0015.38,0009.30
2023-07-08 18:25:00,SystemResetWarning,0830.0,4.99,000.00,030.0,025.4,000.0,038.2,030.5,34.1,-001.2,0009.99,0015.40,0009.28
2023-07-08 18:26:00,SystemResetWarning,0830.1,4.98,000.00,029.9,025.9,000.0,038.2,030.5,35.1,-001.1,0010.02,0015.13,0009.26
2023-07-08 18:27:00,SystemResetWarning,0830.1,5.03,000.00,030.0,026.3,000.0,038.2,030.7,35.1,-001.1,0010.02,0015.02,0009.24
2023-07-08 18:28:00,SystemResetWarning,0830.1,4.96,000.00,030.1,026.7,000.0,038.2,030.8,34.6,-001.0,0010.02,0015.12,0009.24
2023-07-08 18:29:00,SystemResetWarning,0830.1,5.04,000.00,030.3,027.0,000.0,038.2,030.9,33.4,-000.9,0009.96,0015.00,0009.19
2023-07-08 18:30:00,SystemResetWarning,0830.2,4.97,000.00,030.4,027.3,000.0,038.3,031.0,32.7,-000.8,0009.86,0014.87,0009.10
2023-07-08 18:31:00,SystemResetWarning,0830.2,5.01,000.00,030.5,027.6,000.0,038.3,031.1,31.9,-000.8,0009.78,0014.44,0009.03
2023-07-08 18:32:00,SystemResetWarning,0830.2,5.01,000.00,030.6,027.7,000.0,038.4,031.1,31.7,-000.6,0009.73,0014.54,0008.98
2023-07-08 18:33:00,SystemResetWarning,0830.3,5.00,000.00,030.6,026.8,000.0,038.3,031.1,32.6,-000.6,0009.70,0014.76,0008.95
2023-07-08 18:34:00,SystemResetWarning,0830.2,4.99,000.00,030.6,025.4,000.0,038.2,030.9,32.8,-000.7,0009.60,0014.58,0008.85
2023-07-08 18:35:00,SystemResetWarning,0830.1,5.02,000.00,030.5,025.0,000.0,038.2,030.7,31.6,-000.5,0009.48,0014.31,0008.74
2023-07-08 18:36:00,SystemResetWarning,0830.1,4.99,000.00,030.4,025.2,000.0,038.2,030.4,32.1,-000.4,0009.42,0014.38,0008.69
2023-07-08 18:37:00,SystemResetWarning,0830.1,4.99,000.00,030.3,025.6,000.0,038.3,030.5,33.0,-000.5,0009.41,0014.47,0008.67
2023-07-08 18:38:00,SystemResetWarning,0830.1,5.00,000.00,030.2,026.0,000.0,038.3,030.6,34.4,-000.5,0009.39,0014.25,0008.65
2023-07-08 18:39:00,SystemResetWarning,0830.1,5.01,000.00,030.2,026.5,000.0,038.3,030.7,33.8,-000.9,0009.32,0013.81,0008.58
2023-07-08 18:40:00,SystemResetWarning,0830.1,5.00,000.00,030.2,026.8,000.0,038.4,030.8,33.1,-001.1,0009.28,0013.82,0008.55
2023-07-08 18:41:00,SystemResetWarning,0830.1,5.01,000.00,030.2,027.2,000.0,038.4,030.9,33.3,-001.1,0009.28,0013.75,0008.57
2023-07-08 18:42:00,SystemResetWarning,0830.1,5.00,000.00,030.2,027.5,000.0,038.4,030.9,33.1,-001.1,0009.32,0013.84,0008.61
2023-07-08 18:43:00,SystemResetWarning,0830.1,5.00,000.00,030.2,027.7,000.0,038.4,031.0,33.2,-001.3,0009.29,0013.59,0008.59
2023-07-08 18:44:00,SystemResetWarning,0830.1,4.99,000.00,030.2,027.1,000.0,038.3,031.0,33.0,-001.4,0009.27,0013.46,0008.57
2023-07-08 18:45:00,SystemResetWarning,0830.1,5.01,000.00,030.2,025.5,000.0,038.2,030.8,33.8,-001.4,0009.27,0013.81,0008.58
2023-07-08 18:46:00,SystemResetWarning,0830.0,4.99,000.00,030.1,024.9,000.0,038.1,030.6,34.3,-001.5,0009.33,0014.04,0008.66
2023-07-08 18:47:00,SystemResetWarning,0830.1,5.03,000.00,030.0,025.0,000.0,038.1,030.4,33.9,-001.7,0009.36,0014.40,0008.69
2023-07-08 18:48:00,SystemResetWarning,0830.1,4.98,000.00,029.9,025.4,000.0,038.1,030.4,34.1,-001.6,0009.33,0014.39,0008.72
2023-07-08 18:49:00,SystemResetWarning,0830.0,5.00,000.00,029.9,025.9,000.0,038.1,030.5,33.5,-001.6,0009.35,0014.40,0008.75
2023-07-08 18:50:00,SystemResetWarning,0830.0,5.01,000.00,029.9,026.3,000.0,038.2,030.6,33.3,-001.5,0009.40,0014.43,0008.79
2023-07-08 18:51:00,SystemResetWarning,0830.0,5.01,000.00,029.9,026.7,000.0,038.1,030.7,33.3,-001.3,0009.45,0014.60,0008.79
2023-07-08 18:52:00,SystemResetWarning,0830.0,4.97,000.00,029.9,027.1,000.0,038.2,030.8,35.1,-001.3,0009.46,0014.65,0008.77
2023-07-08 18:53:00,SystemResetWarning,0830.1,5.01,000.00,030.0,027.4,000.0,038.2,030.9,35.2,-001.0,0009.43,0014.76,0008.75
2023-07-08 18:54:00,SystemResetWarning,0830.0,4.99,000.00,030.2,027.6,000.0,038.2,031.0,35.0,-000.7,0009.45,0014.97,0008.72
2023-07-08 18:55:00,SystemResetWarning,0830.1,5.03,000.00,030.4,027.7,000.0,038.2,031.2,34.0,-000.6,0009.48,0014.96,0008.74
2023-07-08 18:56:00,SystemResetWarning,0830.0,4.98,000.00,030.6,026.7,000.0,038.1,031.1,32.8,-000.6,0009.49,0014.58,0008.74
2023-07-08 18:57:00,SystemResetWarning,0830.0,4.99,000.00,030.7,025.3,000.0,038.0,030.9,32.3,-000.4,0009.51,0014.46,0008.72
2023-07-08 18:58:00,SystemResetWarning,0830.0,5.01,000.00,030.7,025.0,000.0,038.0,030.8,32.3,-000.1,0009.47,0013.96,0008.67
2023-07-08 18:59:00,SystemResetWarning,0830.0,5.01,000.00,030.6,025.2,000.0,038.1,030.6,33.4,0000.0,0009.39,0013.65,0008.59
